This is the latest recevied weather packets stored in our database for station/object EA6MI-10. If no packets are shown the sender has not sent any weather packets the latest 10 day(s).
| Time | Temp. | Humidity | Pressure | Rain* | Wind** | Luminosity | Snow |
|---|---|---|---|---|---|---|---|
| 1777412313 | 22.78° C | 43% | 1006.1 hPa | - | - | - | - |
| 1777411413 | 23.33° C | 42% | 1006.1 hPa | - | - | - | - |
| 1777410519 | 22.78° C | 41% | 1005.7 hPa | - | - | - | - |
| 1777410512 | 22.78° C | 41% | 1005.7 hPa | - | - | - | - |
| 1777409612 | 22.78° C | 40% | 1005.4 hPa | - | - | - | - |
| 1777408712 | 22.78° C | 33% | 1005.1 hPa | - | - | - | - |
| 1777407812 | 23.33° C | 34% | 1004.6 hPa | - | - | - | - |
| 1777406912 | 23.89° C | 43% | 1004.5 hPa | - | - | - | - |
| 1777406012 | 23.89° C | 35% | 1004.1 hPa | - | - | - | - |
| 1777405112 | 23.33° C | 40% | 1002.6 hPa | - | - | - | - |
| 1777404212 | 23.89° C | 37% | 1004.1 hPa | - | - | - | - |
| 1777403311 | 23.89° C | 46% | 1003.4 hPa | - | - | - | - |
| 1777402411 | 23.89° C | 46% | 1002.6 hPa | - | - | - | - |
| 1777401511 | 24.44° C | 46% | 1002.2 hPa | - | - | - | - |
| 1777400611 | 24.44° C | 44% | 1001.8 hPa | - | - | - | - |
| 1777399711 | 24.44° C | 43% | 1002 hPa | - | - | - | - |
| 1777398811 | 24.44° C | 42% | 1002.4 hPa | - | - | - | - |
| 1777397911 | 25° C | 42% | 1002.7 hPa | - | - | - | - |
| 1777397011 | 25° C | 42% | 1003.4 hPa | - | - | - | - |
| 1777396110 | 25° C | 43% | 1004.5 hPa | - | - | - | - |
| 1777395210 | 25° C | 43% | 1005.2 hPa | - | - | - | - |
| 1777394310 | 25° C | 44% | 1005.5 hPa | - | - | - | - |
| 1777393410 | 25° C | 44% | 1005.4 hPa | - | - | - | - |
| 1777392510 | 25° C | 45% | 1005.5 hPa | - | - | - | - |
| 1777391610 | 25° C | 45% | 1006 hPa | - | - | - | - |
* Rain since midnight (hover to see other rain measurements)
** Current wind speed in m/s (hover to see current wind gust speed)